Regional Weather Roundup
Issued by NWS

Home | Current Version | Previous Version | Graphics & Text | Print | Product List | Glossary On
Versions: 1 2 3 4 5 6 7 8 9 10 11 12 13 14 15 16 17 18 19 20 21 22 23 24 25 26 27 28 29 30 31 32 33 34 35 36 37 38 39 40 41 42 43 44 45 46 47 48 49 50
000
ASUS43 KLMK 242002
RWRKY
KENTUCKY REGIONAL WEATHER ROUNDUP
NATIONAL WEATHER SERVICE LOUISVILLE KY
400 PM EDT TUE MAY 24 2016

NOTE "FAIR" INDICATES FEW OR NO CLOUDS BELOW 12,000 FEET
WITH NO SIGNIFICANT WEATHER AND/OR OBSTRUCTIONS TO VISIBILITY.

KYZ001>023-026-027-061>063-070>075-242100-
WESTERN AND SOUTH CENTRAL KENTUCKY

CITY           SKY/WX    TMP DP  RH WIND       PRES   REMARKS
PADUCAH        MOSUNNY   85  57  38 SW8G17    30.04S
HENDERSON      CLOUDY    81  55  41 S8        30.04S
OWENSBORO      SUNNY     83  58  42 S10       30.06F
HOPKINSVILLE   NOT AVBL
BOWLING GREEN  MOSUNNY   85  56  37 SW6       30.07F
GLASGOW        NOT AVBL
$$

KYZ024-025-028>034-038-045-046-053-242100-
NORTH CENTRAL KENTUCKY

CITY           SKY/WX    TMP DP  RH WIND       PRES   REMARKS
LOUISVILLE/SDF PTSUNNY   83  49  30 NW5       30.06F
LOUISVILLE/LOU MOSUNNY   82  48  30 VRB5      30.07F
FORT KNOX      NOT AVBL
$$

KYZ035>037-039>044-047>052-055>060-089>105-242100-
NORTHEAST KENTUCKY

CITY           SKY/WX    TMP DP  RH WIND       PRES   REMARKS
LEXINGTON      SUNNY     80  47  31 S5        30.11F
COVINGTON      MOSUNNY   80  45  28 SW8       30.08F
FRANKFORT      SUNNY     82  43  25 SW8       30.09F
$$

KYZ054-064>069-076>088-106>120-242100-
SOUTHEAST KENTUCKY

CITY           SKY/WX    TMP DP  RH WIND       PRES   REMARKS
JACKSON        SUNNY     80  52  37 W6        30.13F
LONDON         SUNNY     78  44  29 S5        30.12F
SOMERSET       NOT AVBL
MIDDLESBORO    NOT AVBL
MONTICELLO     CLEAR     80  53  39 W9        30.12F
$$




USA.gov is the U.S. government's official web portal to all federal, state and local government web resources and services.